Regional Weather Roundup
Issued by NWS

Home | Current Version | Previous Version | Text Only | Print | Product List | Glossary Off
Versions: 1 2 3 4 5 6 7 8 9 10 11 12 13 14 15 16 17 18 19 20 21 22 23 24 25 26 27 28 29 30 31 32 33 34 35 36 37 38 39 40 41 42 43 44 45 46 47 48 49 50

000
ASUS44 KMEG 052310
RWRTN
TENNESSEE HOURLY STATE WEATHER ROUNDUP
NATIONAL WEATHER SERVICE MEMPHIS TN
500 PM CST THU MAR 05 2015

TNZ002-004-019-021-049-052-054-088>092-060000-
WEST TENNESSEE

CITY           SKY/WX    TMP DP  RH WIND       PRES   REMARKS
MEMPHIS INTL   MOSUNNY   30  12  47 NE13      30.53R WCI  20
NWS MEMPHIS      N/A     28 N/A N/A MISG        N/A
JACKSON        SUNNY     26  12  55 N13       30.52R WCI  15
DYERSBURG      SUNNY     25   1  36 NE8       30.56R WCI  16
UNION CITY       N/A     21  10  63 N10       30.53R WCI  10
PARIS          CLEAR     23   7  50 N9        30.50R WCI  13
LEXINGTON      CLEAR     27   9  46 N9        30.47R WCI  17
SAVANNAH       CLEAR     28  12  50 N12       30.47R WCI  18
$$

TNZ008-025-027-028-033-062-065-066-060000-
NORTH MIDDLE TENNESSEE

CITY           SKY/WX    TMP DP  RH WIND       PRES   REMARKS
NASHVILLE      PTCLDY    26  15  63 N10       30.48R WCI  16
CLARKSVILLE    CLEAR     23   8  52 N13       30.50R WCI  11
SMYRNA         PTCLDY    26  17  68 N12       30.48R WCI  16
COOKEVILLE     CLOUDY    21  18  86 N5        30.41R WCI  15
CROSSVILLE     CLOUDY    20  16  84 N10G18    30.34R WCI   9
$$

TNZ061-075-076-078-094-096-097-060000-
SOUTH MIDDLE TENNESSEE

CITY           SKY/WX    TMP DP  RH WIND       PRES   REMARKS
FAYETTEVILLE   CLOUDY    21  18  86 N9          N/A  WCI  11
TULLAHOMA      CLOUDY    21  18  86 N9          N/A  WCI  11
WINCHESTER     CLOUDY    21  19  93 N13       30.39R WCI   9
MCMINNVILLE    CLOUDY    21  18  86 N14       30.41R WCI   8
COLUMBIA         N/A     27  18  69 N9        30.43R WCI  17
SHELBYVILLE    CLOUDY    25  21  86 N6        30.44R WCI  18
$$

TNZ017-018-042-046-047-060000-
NORTHEAST TENNESSEE

CITY           SKY/WX    TMP DP  RH WIND       PRES   REMARKS
TRI CITIES     LGT SNOW  26  21  81 N8        30.30R WCI  18
ELIZABETHTON   CLOUDY    25  23  93 W9        30.27R FOG     WCI  15
$$

TNZ012-013-036-069-073-074-060000-
CENTRAL EAST TENNESSEE

CITY           SKY/WX    TMP DP  RH WIND       PRES   REMARKS
KNOXVILLE      LGT SNOW  26  22  84 N13       30.36R FOG     WCI  15
OAK RIDGE      LGT SNOW  27  22  81 N5        30.39R WCI  22
GATLINBURG     CLOUDY    27  25  93 NW8       30.35R WCI  18
MORRISTOWN     MOCLDY    27  27 100 NW7       30.33R WCI  19
$$

TNZ083-085-099-060000-
SOUTHEAST TENNESSEE

CITY           SKY/WX    TMP DP  RH WIND       PRES   REMARKS
CHATTANOOGA    CLOUDY    30  22  72 N17       30.35R WCI  18
$$

SKY/WX REPORTED AS FAIR MEANS FEW OR NO CLOUDS BELOW
12 THOUSAND FEET.




USA.gov is the U.S. government's official web portal to all federal, state and local government web resources and services.